sat.trackr.live / text

‹ back to catalog

STARLINK-31394

NORAD 59185 · 2024-045H

PAYLOAD ACTIVE UNKNOWN

§ Identity

Operator
Country
US
Launch date
2024-03-10
Launch site
AFETR
Launch vehicle
Mass (kg)
RCS (m²)

Purposes: comms

External: N2YO · Heavens-Above · Gunter

§ Orbital elements

Epoch: 2026-05-25T00:00:28.484352Z

Period
94.27 min
Inclination
43.0036°
Eccentricity
0.0001375
Mean motion
15.27592522 rev/d
Perigee alt
482.1 km
Apogee alt
484.0 km
Semi-major
6,861.1 km
B*
6.2767e-5
RAAN
11.0791°
Arg perigee
282.6056°
Mean anomaly
77.4642°
Rev number
12,495

§ Raw data

STARLINK-313941 59185U 24045H   26145.00032968  .00001466  00000+0  62767-4 0  99972 59185  43.0036  11.0791 0001375 282.6056  77.4642 15.27592522124951

JSON: /api/v1/satellites/59185 · /tle

For live sub-satellite position, see the globe view (requires WebGL).

§ Visibility from observer

Set your observer location to see the next 7 days of passes ≥ 10°. The values pass through the URL so the page stays shareable.

No JS? Fill the form by hand. The geolocation button needs JavaScript.